Satellite: IDEFIX/ARIANE 
Catalog number: 27422
Epoch time:      103015.54848725
Element set:     209 
Inclination:       98.6999 deg
RA of node:        94.8997 deg
Eccentricity:    0.0011819
Arg of perigee:   247.1933 deg
Mean anomaly:     112.8000 deg
Mean motion:   14.27949600 rev/day
Decay rate:    3.1500E-006 rev/day^2
Epoch rev:            3660
Checksum:              323

Satellite: NOAA 17
Catalog number: 27453
Epoch time:      103014.90785393
Element set:     268 
Inclination:       98.7618 deg
RA of node:        86.2914 deg
Eccentricity:    0.0012651
Arg of perigee:    96.8758 deg
Mean anomaly:     263.3860 deg
Mean motion:   14.23270430 rev/day
Decay rate:    3.1100E-006 rev/day^2
Epoch rev:            2903
Checksum:              311

Satellite: HOT BIRD 6
Catalog number: 27499
Epoch time:      103013.80550721
Element set:     66 
Inclination:        0.0928 deg
RA of node:        32.8693 deg
Eccentricity:    0.0008090
Arg of perigee:   290.3889 deg
Mean anomaly:      92.5421 deg
Mean motion:    1.00271722 rev/day
Decay rate:    1.0600E-006 rev/day^2
Epoch rev:             147
Checksum:              269

Satellite: RUBIN 2
Catalog number: 27605
Epoch time:      103014.30504738
Element set:     29 
Inclination:       64.5534 deg
RA of node:       304.3184 deg
Eccentricity:    0.0030897
Arg of perigee:   125.8465 deg
Mean anomaly:     234.5514 deg
Mean motion:   14.71370950 rev/day
Decay rate:    9.2899E-006 rev/day^2
Epoch rev:             362
Checksum:              302


Read previous mail | Read next mail


 03.11.2025 05:58:22lGo back Go up